Location: Berlin
(38.3226°N, 75.2177°W)
Time: 11:57:53
(UTC+00:00)

NOSS 8 (A) - Pass Details

Date: 26 October 2020
Orbit: 376 x 1769 km, 63.3° (Epoch: 23 November)

Event Time Altitude Azimuth Distance (km) Brightness Sun altitude
Rises 10:10:13 0° 209° (SSW) 2,776 8.2 -14.5°
Reaches altitude 10° 10:12:41 10° 208° (SSW) 1,714 7.1 -14.1°
Maximum altitude 10:16:20 78° 122° (ESE) 442 4.4 -13.3°
Drops below altitude 10° 10:19:22 10° 36° (NE) 1,424 7.3 -12.8°
Sets 10:21:15 0° 35° (NE) 2,250 8.4 -12.4°
